Temperature
9 9 10 13 15 17 17 17 17 18 18 18 18 19 20 21 20 19 19 17 16 15 14 16 16 16 17 17 18 18 18 17 17 17 16 15 14 14 13 13 13 13 13 12
9 9 12 14 15 16 17 17 17 18 17 17 18 19 20 21 20 19 19 17 16 14 13 14 15 16 17 17 17 17 17 17 16 16 15 14 14 13 12 12 12 12 12 12
9 11 12 14 15 15 16 16 17 17 16 17 17 19 20 20 17 16 16 16 15 14 13 13 14 16 16 16 16 16 16 16 15 14 14 13 13 12 12 12 12 11 11 11
10 12 12 13 14 15 15 17 17 16 16 17 17 17 20 20 18 17 16 15 15 13 13 13 13 14 15 15 15 15 15 14 14 13 13 13 12 12 11 11 11 11 10 10
9 11 11 12 15 16 16 16 16 16 16 16 17 17 20 19 19 18 16 15 14 13 12 12 12 13 14 14 14 14 14 14 13 13 12 12 12 11 11 10 10 10 10 10
11 11 12 13 15 16 15 15 14 14 15 15 17 17 19 21 20 19 16 14 13 12 11 11 12 13 13 13 13 13 13 13 12 12 12 12 11 11 10 10 10 10 9 9
9 10 12 13 13 14 15 14 13 13 14 16 17 17 19 20 18 18 17 15 13 12 11 10 11 12 12 13 13 12 12 12 12 12 11 11 11 10 10 10 10 9 9 8
9 10 12 13 14 13 14 15 14 16 16 17 15 17 20 18 16 15 16 15 13 12 11 10 11 11 12 12 12 12 12 11 11 11 11 10 10 10 9 9 9 8 8 7
10 10 11 12 14 14 14 14 15 16 16 17 18 18 19 17 17 15 15 14 13 12 11 10 10 11 11 11 11 11 11 11 10 10 10 9 9 9 8 8 8 7 6 5
12 11 11 11 12 12 14 14 13 15 16 17 18 18 20 19 18 16 15 14 13 12 11 10 10 10 10 11 10 10 10 10 9 9 8 8 8 8 7 7 6 5 5 4
13 12 11 11 12 12 12 12 13 15 16 17 18 19 18 18 17 16 15 14 13 12 11 9 9 10 10 10 9 9 9 8 8 8 7 7 7 6 6 5 5 4 4 3
13 14 12 12 13 15 15 14 14 15 15 17 18 19 17 16 15 15 15 14 13 11 10 9 9 10 9 9 9 8 8 7 7 7 6 6 6 5 5 4 4 3 3 2
14 14 12 12 12 13 14 15 15 16 16 16 17 19 16 16 15 14 14 13 12 11 9 9 9 9 9 8 8 7 7 7 6 6 6 5 5 4 3 3 3 2 2 2
14 15 15 15 15 14 14 14 15 16 16 16 17 19 18 17 16 15 13 13 12 10 9 9 8 8 8 7 7 6 6 6 5 5 5 4 3 3 3 2 2 1 1 1
14 15 15 16 15 15 15 15 15 15 17 17 18 18 19 18 17 15 14 12 11 10 9 9 8 7 7 7 6 6 5 5 5 4 4 3 3 2 2 1 1 1 0 0
14 14 14 14 13 14 15 15 15 16 17 17 18 18 18 16 14 14 13 12 11 10 9 8 8 7 6 6 5 5 5 4 4 3 3 2 2 1 1 1 0 0 -0 -1
13 14 14 14 13 13 14 15 15 16 17 17 17 18 15 14 14 13 12 11 11 10 9 9 8 7 6 5 5 5 4 4 3 2 2 1 1 1 0 0 -0 -1 -1 -1
14 14 14 13 13 13 17 14 16 16 16 17 17 16 15 14 12 11 11 11 10 10 10 9 7 6 5 5 4 4 3 3 2 2 1 1 1 0 -0 -1 -1 -1 -2 -3
13 13 12 12 14 15 15 13 13 14 15 15 15 13 12 10 11 10 8 9 10 10 10 9 7 6 5 4 4 3 3 2 1 1 1 0 -0 -1 -1 -1 -2 -2 -3 -4
10 11 12 12 13 14 16 13 12 14 14 12 13 12 11 12 13 11 8 9 10 9 9 8 6 5 4 3 3 3 2 1 1 1 0 -0 -1 -1 -2 -2 -2 -3 -4 -4
10 10 11 12 13 16 13 11 12 14 15 11 11 11 11 12 12 9 9 9 8 8 7 6 5 4 3 3 2 2 1 1 0 0 -0 -1 -1 -2 -2 -3 -4 -4 -5 -5
12 12 12 12 13 14 11 11 13 13 10 10 10 10 9 9 9 8 8 8 7 7 6 5 4 3 3 2 2 1 1 0 -0 -1 -1 -1 -2 -3 -3 -4 -4 -5 -5 -6
12 13 14 14 13 10 9 10 10 10 10 9 9 9 9 8 8 8 7 7 6 6 5 4 3 3 2 2 1 0 -0 -0 -1 -1 -2 -2 -3 -3 -4 -4 -5 -6 -6 -7
9 8 10 10 10 8 7 7 8 9 9 10 10 9 9 8 8 7 7 6 6 5 4 3 2 2 1 0 -0 -0 -1 -1 -1 -2 -2 -3 -3 -4 -4 -5 -6 -7 -7 -8
10 8 9 10 9 8 7 7 8 9 9 9 8 8 8 7 7 6 6 5 5 4 3 2 1 0 -0 -1 -1 -1 -1 -2 -2 -3 -3 -3 -4 -4 -5 -6 -7 -7 -8 -8
8 10 11 12 10 10 9 7 8 9 8 8 8 7 7 7 6 6 5 4 4 3 2 1 0 -0 -1 -1 -1 -1 -2 -2 -3 -3 -4 -4 -5 -5 -6 -7 -7 -8 -9 -9
Wind_Speed
16 15 20 26 27 21 19 20 18 16 9 8 15 18 18 16 12 13 10 9 8 7 7 7 8 8 9 11 12 13 13 11 10 9 9 9 10 10 10 11 14 14 13 13
14 22 22 24 25 21 18 19 17 12 6 7 13 19 19 16 11 9 10 12 12 11 10 9 10 10 11 13 13 14 14 13 12 11 10 10 11 10 10 9 12 14 14 13
22 16 19 23 25 24 21 19 17 10 6 7 8 13 11 6 4 4 8 11 12 13 13 12 11 11 11 13 13 13 15 15 14 13 11 10 9 8 8 9 9 11 12 12
22 16 20 24 27 24 21 16 12 9 7 5 2 6 8 8 7 6 9 12 13 13 13 13 12 12 12 12 12 14 15 15 14 12 11 12 10 9 7 6 7 8 10 11
16 17 19 24 27 24 14 13 11 8 8 8 9 8 8 6 8 9 12 14 14 14 13 13 12 12 11 11 11 13 15 15 13 13 12 12 10 8 6 6 7 7 7 9
13 13 14 16 20 18 11 12 6 2 4 8 10 9 7 3 2 4 13 15 15 14 13 13 12 11 11 10 11 12 14 13 12 12 12 12 11 9 8 7 7 6 5 6
11 12 9 13 16 16 14 11 6 6 8 8 5 7 8 1 0 2 13 17 16 15 14 14 14 12 11 11 11 11 13 13 11 12 11 11 10 8 8 7 7 7 6 6
12 12 13 15 14 12 18 14 7 7 8 5 6 7 4 2 1 2 9 16 17 16 15 14 13 12 11 11 11 11 12 11 11 10 10 9 8 6 6 7 6 7 6 7
12 7 7 9 9 13 14 11 3 0 3 4 5 5 5 3 2 2 10 17 18 17 15 14 13 12 11 11 10 11 11 10 10 9 8 8 7 7 6 6 6 5 6 6
8 7 7 6 8 3 6 10 6 4 5 5 4 5 3 3 1 1 10 18 19 17 15 14 12 12 11 10 10 10 10 9 8 7 7 6 6 6 5 5 6 6 7 7
6 6 7 8 10 13 9 8 7 7 4 4 4 3 1 4 6 3 9 17 19 17 16 14 12 12 11 11 10 10 9 8 7 6 6 6 5 5 4 5 6 6 7 8
6 6 7 7 2 10 11 12 11 8 7 5 4 2 3 4 5 2 8 14 16 16 14 13 13 12 11 11 10 9 8 7 6 5 5 5 4 4 4 5 6 7 8 9
8 7 10 7 5 8 11 14 17 10 6 9 8 4 3 2 3 3 8 13 14 15 14 13 13 12 12 11 10 9 8 7 5 4 4 4 4 4 5 6 7 8 9 10
5 6 9 12 9 13 14 18 20 18 12 12 12 8 5 4 4 5 8 12 14 14 14 14 13 13 12 11 10 8 7 6 4 4 3 3 3 4 6 6 7 8 9 10
6 6 7 5 6 15 17 21 23 25 23 16 15 16 14 7 5 7 9 11 12 13 13 14 14 13 12 11 9 8 7 5 4 3 2 2 4 5 6 7 8 9 9 10
8 5 5 4 4 10 11 20 25 27 26 24 19 16 8 6 7 8 9 11 11 12 13 13 14 14 13 12 10 8 6 4 3 2 1 3 4 6 7 8 9 9 10 11
9 6 6 4 5 6 10 18 23 23 25 24 26 21 9 9 10 10 9 9 9 10 11 13 14 14 12 11 9 8 6 4 2 1 2 4 5 7 8 9 10 10 11 12
10 6 2 4 7 8 5 1 15 21 22 20 15 7 14 13 11 8 7 8 7 7 9 11 12 13 11 10 9 7 5 3 2 1 3 4 6 8 9 10 10 11 12 13
4 6 4 4 6 6 4 4 7 12 14 14 14 11 14 16 12 7 4 5 5 6 8 10 12 12 11 10 8 7 5 3 0 2 4 5 7 9 10 11 12 12 13 14
4 4 4 4 5 6 1 5 6 7 7 9 13 17 18 16 11 7 5 6 7 8 9 11 12 12 11 9 7 6 3 1 1 3 5 6 8 9 11 12 13 13 13 14
7 5 8 8 6 6 3 6 8 7 2 12 14 16 15 8 6 9 8 7 8 9 11 12 12 10 9 8 6 4 2 1 2 4 6 7 8 10 11 12 12 13 13 15
12 10 10 8 8 6 6 9 8 2 8 13 14 12 11 11 10 9 9 9 9 10 11 11 10 9 8 7 5 3 2 1 3 5 7 8 10 9 9 12 12 13 14 15
9 7 6 7 4 2 1 2 2 9 13 11 10 11 12 10 8 7 7 8 8 10 10 9 9 9 7 5 3 2 1 2 4 6 8 9 10 10 10 11 13 13 13 12
4 1 4 3 2 1 3 5 8 11 12 12 12 11 9 8 8 7 7 7 8 9 9 8 9 8 6 5 3 2 1 3 5 8 9 9 10 11 11 10 10 11 12 12
6 7 4 4 4 5 4 7 10 11 13 13 10 7 8 9 7 6 6 7 8 8 8 8 8 7 6 5 3 1 2 4 6 8 9 9 9 10 11 11 10 12 12 13
7 8 8 6 12 8 10 11 11 13 11 11 9 7 6 5 6 6 5 6 7 8 8 8 7 7 5 4 2 2 3 5 7 8 8 8 9 10 10 12 12 12 14 18
Wind_Direction
196 213 207 198 200 205 203 208 212 217 214 230 249 264 276 282 264 250 226 196 171 133 102 87 78 74 72 66 65 65 70 80 93 101 102 96 87 81 73 65 61 58 55 50
196 220 213 199 198 206 204 203 208 216 210 247 267 275 277 273 258 240 212 189 168 145 125 104 93 82 77 75 74 73 72 74 78 85 87 91 92 81 75 67 58 52 49 44
205 208 209 199 194 198 203 204 203 200 193 229 280 276 254 226 207 207 198 180 165 153 137 123 107 94 87 79 78 79 80 81 85 92 98 101 97 88 71 59 53 46 44 40
211 215 201 194 193 194 201 203 202 205 238 238 258 287 260 232 221 196 179 172 165 154 141 131 122 110 98 90 87 85 84 82 83 88 91 90 86 78 66 55 52 49 42 35
202 216 203 192 192 192 194 183 200 223 250 266 246 261 271 231 241 210 183 173 167 160 149 140 130 120 109 101 94 91 87 83 81 83 86 87 84 82 73 59 47 38 35 31
203 218 211 196 189 183 145 146 141 167 224 249 234 231 271 229 222 171 177 175 170 162 153 143 136 128 117 110 101 98 94 88 85 83 81 81 81 76 66 50 36 25 21 17
209 217 200 184 166 172 174 158 153 180 207 230 179 222 254 297 158 190 182 178 173 166 161 155 149 141 130 120 111 108 103 97 91 87 82 81 79 72 58 40 27 18 12 9
195 186 183 179 175 173 186 185 184 188 195 186 179 230 251 59 92 233 193 178 172 171 168 163 155 147 138 128 123 117 109 103 97 91 86 81 73 63 52 37 25 17 7 1
193 175 155 161 166 161 172 191 211 210 158 204 205 237 272 149 146 179 184 177 177 175 171 165 157 152 143 135 129 124 117 109 103 97 92 80 68 59 49 34 25 16 5 350
186 152 147 132 122 84 165 157 159 199 194 210 212 231 216 167 319 152 181 181 179 175 171 165 160 153 144 134 129 125 119 114 108 99 88 78 66 55 42 30 21 8 356 348
196 150 145 161 179 168 151 160 178 195 239 224 200 167 113 304 311 267 192 184 178 175 173 167 159 151 142 137 136 132 127 121 111 99 88 77 63 47 34 24 11 357 348 342
196 156 149 171 176 188 186 182 182 191 201 219 232 156 97 313 315 249 181 176 174 173 169 163 156 151 149 147 145 141 136 126 112 97 83 69 54 34 22 14 2 349 342 336
179 162 144 155 175 185 202 197 201 214 211 208 217 203 113 53 67 121 160 167 169 167 163 160 159 159 157 155 152 147 139 126 112 96 78 61 39 19 9 1 351 341 334 328
203 198 201 195 189 181 195 199 203 207 217 218 224 223 178 155 129 134 155 166 167 166 166 166 166 166 163 159 155 149 138 128 115 96 71 42 17 5 356 348 338 331 325 321
216 221 211 209 170 180 195 199 203 212 222 230 230 231 232 205 166 152 157 162 166 168 171 174 173 170 165 160 156 148 140 133 124 106 68 20 358 351 343 336 327 321 316 314
209 211 179 177 180 196 212 211 209 216 224 232 242 241 233 166 150 152 158 163 170 175 178 178 176 173 169 162 156 151 146 139 135 116 33 0 346 340 333 326 319 313 312 313
190 186 184 181 152 170 232 222 215 219 225 228 235 239 172 168 165 157 154 157 165 173 177 179 178 174 166 160 155 153 148 145 137 74 5 348 338 329 323 316 312 311 314 314
183 174 142 143 159 217 226 221 216 222 227 227 234 228 180 163 137 124 126 136 141 158 169 173 171 164 155 148 148 145 145 141 122 14 345 339 329 320 315 312 313 315 315 313
171 152 146 181 213 252 242 182 182 202 224 218 212 165 143 132 124 112 89 99 117 142 156 159 157 151 146 147 149 150 148 143 126 335 333 329 319 313 312 314 316 316 314 312
93 123 163 201 220 238 222 144 165 169 222 188 177 157 150 156 165 152 126 115 115 122 132 138 139 139 142 145 151 156 157 182 303 325 319 313 310 309 311 312 312 312 311 310
156 168 204 218 237 263 119 145 161 192 218 148 155 150 152 157 130 123 128 119 120 124 131 135 138 140 141 144 151 159 179 251 313 309 306 308 310 309 307 307 308 309 309 308
177 181 197 202 225 240 139 156 185 118 121 135 136 133 124 114 113 120 125 127 130 131 137 141 140 136 137 144 153 171 224 289 304 306 307 308 307 305 302 306 308 310 311 312
194 194 191 198 210 64 144 178 119 141 134 131 128 127 128 127 130 129 132 137 143 146 148 149 145 140 142 149 164 210 250 304 310 309 306 303 303 303 304 306 310 313 315 314
189 124 142 153 161 119 121 122 124 131 124 123 126 128 132 132 137 138 143 151 156 158 159 156 153 154 158 165 183 225 296 311 304 300 300 301 304 307 310 309 309 314 315 314
160 161 152 146 142 131 144 144 130 116 114 115 111 112 126 133 140 150 159 167 169 167 166 165 168 170 168 171 187 232 291 290 289 293 297 302 305 307 310 309 309 309 305 305
180 178 179 189 180 170 168 154 140 131 129 130 124 113 107 128 144 151 161 168 169 168 165 166 169 166 163 171 201 241 259 268 281 292 301 306 307 309 311 312 310 302 298 302
Height
1483 1486 1476 1474 1476 1477 1479 1483 1486 1487 1487 1491 1487 1482 1479 1478 1479 1477 1478 1479 1481 1481 1481 1481 1482 1482 1483 1484 1484 1483 1482 1482 1482 1483 1484 1485 1485 1486 1487 1487 1487 1486 1486 1485
1479 1476 1470 1471 1474 1475 1477 1481 1484 1484 1489 1489 1483 1478 1472 1470 1471 1472 1473 1475 1477 1480 1481 1481 1482 1484 1485 1485 1484 1484 1484 1484 1485 1485 1486 1486 1487 1487 1487 1488 1488 1487 1486 1485
1468 1466 1468 1468 1469 1474 1476 1477 1479 1482 1487 1485 1484 1473 1465 1465 1469 1470 1470 1473 1476 1478 1480 1481 1483 1484 1485 1485 1485 1485 1486 1486 1486 1487 1488 1488 1489 1489 1489 1490 1489 1488 1487 1485
1465 1462 1463 1463 1465 1469 1474 1474 1478 1483 1485 1481 1484 1479 1462 1459 1463 1466 1468 1471 1474 1478 1479 1481 1483 1484 1485 1486 1486 1487 1487 1487 1488 1490 1491 1491 1491 1490 1490 1490 1489 1488 1486 1484
1460 1459 1457 1458 1458 1464 1468 1474 1479 1482 1484 1484 1478 1480 1459 1456 1457 1458 1464 1469 1473 1476 1479 1481 1482 1484 1485 1486 1487 1488 1488 1489 1490 1491 1492 1491 1491 1491 1491 1490 1489 1487 1485 1482
1454 1456 1454 1453 1457 1464 1470 1476 1483 1485 1485 1486 1471 1473 1459 1448 1450 1453 1461 1467 1471 1475 1478 1480 1482 1483 1485 1486 1488 1489 1489 1490 1491 1491 1491 1491 1491 1491 1491 1490 1488 1485 1482 1479
1455 1453 1450 1451 1458 1466 1467 1475 1489 1491 1487 1474 1469 1469 1454 1446 1451 1454 1458 1464 1469 1474 1477 1479 1481 1483 1484 1486 1488 1489 1490 1490 1491 1491 1491 1491 1491 1491 1489 1488 1486 1483 1481 1477
1451 1448 1446 1447 1450 1457 1461 1467 1473 1471 1469 1464 1473 1466 1447 1450 1453 1455 1457 1462 1467 1472 1476 1479 1480 1482 1484 1486 1488 1489 1490 1490 1490 1491 1490 1490 1490 1489 1488 1486 1484 1481 1478 1474
1445 1444 1445 1447 1449 1453 1462 1466 1465 1463 1464 1463 1456 1453 1445 1449 1450 1453 1455 1459 1465 1470 1474 1477 1479 1481 1483 1485 1487 1488 1489 1490 1490 1490 1489 1489 1488 1487 1485 1483 1481 1478 1475 1471
1433 1440 1444 1449 1451 1457 1456 1460 1470 1469 1465 1461 1454 1451 1443 1442 1445 1450 1453 1456 1462 1468 1473 1476 1478 1480 1482 1484 1486 1487 1488 1489 1489 1488 1488 1487 1486 1485 1483 1480 1478 1475 1471 1468
1430 1434 1447 1448 1448 1452 1460 1464 1464 1464 1459 1455 1454 1447 1441 1443 1444 1446 1450 1454 1459 1465 1470 1474 1476 1479 1481 1483 1485 1486 1487 1487 1487 1487 1486 1485 1484 1482 1479 1477 1475 1471 1468 1465
1429 1429 1441 1445 1446 1445 1448 1452 1457 1461 1460 1453 1448 1446 1443 1444 1445 1446 1448 1453 1459 1464 1469 1472 1474 1477 1479 1482 1483 1485 1485 1486 1485 1485 1484 1483 1481 1479 1477 1474 1471 1468 1465 1461
1427 1427 1439 1450 1452 1451 1448 1448 1450 1450 1450 1451 1451 1445 1444 1444 1445 1446 1448 1453 1457 1462 1466 1469 1472 1475 1477 1480 1481 1483 1483 1484 1483 1483 1482 1480 1478 1476 1474 1471 1468 1465 1462 1458
1426 1422 1423 1427 1426 1434 1441 1444 1444 1447 1448 1446 1444 1438 1441 1442 1444 1446 1449 1452 1456 1460 1463 1466 1469 1472 1475 1477 1479 1480 1481 1481 1481 1480 1479 1477 1475 1473 1470 1468 1465 1461 1458 1454
1425 1421 1419 1420 1423 1425 1430 1435 1439 1439 1435 1437 1435 1437 1435 1438 1442 1445 1448 1451 1455 1458 1461 1463 1466 1469 1472 1474 1476 1478 1479 1479 1478 1477 1476 1474 1472 1469 1467 1464 1461 1458 1454 1449
1423 1421 1422 1426 1428 1427 1428 1426 1429 1430 1430 1430 1430 1432 1433 1439 1442 1445 1447 1450 1453 1455 1458 1461 1464 1466 1469 1472 1474 1476 1476 1476 1475 1474 1472 1470 1468 1466 1463 1461 1457 1453 1449 1444
1419 1420 1421 1424 1429 1429 1429 1420 1421 1422 1421 1424 1426 1425 1435 1439 1441 1443 1446 1448 1451 1453 1456 1458 1460 1463 1466 1470 1472 1473 1474 1473 1472 1470 1469 1467 1465 1463 1460 1457 1453 1448 1443 1438
1416 1418 1421 1426 1429 1433 1408 1412 1410 1413 1415 1418 1420 1424 1429 1433 1440 1444 1447 1448 1450 1452 1454 1456 1458 1461 1464 1467 1469 1471 1471 1470 1469 1467 1466 1464 1462 1459 1456 1452 1448 1443 1438 1432
1415 1419 1425 1427 1421 1414 1410 1413 1413 1414 1414 1417 1421 1426 1431 1436 1440 1445 1446 1448 1450 1451 1453 1454 1456 1459 1462 1465 1467 1468 1468 1467 1466 1465 1463 1461 1459 1456 1452 1448 1444 1438 1432 1426
1419 1420 1426 1427 1422 1417 1404 1409 1411 1413 1414 1416 1419 1424 1429 1433 1436 1444 1446 1447 1449 1450 1452 1453 1455 1458 1461 1464 1465 1466 1465 1465 1464 1462 1460 1458 1455 1452 1448 1444 1439 1433 1427 1420
1419 1422 1423 1422 1418 1403 1407 1410 1412 1415 1407 1415 1419 1424 1429 1432 1434 1442 1444 1446 1448 1450 1451 1452 1455 1458 1460 1462 1463 1463 1463 1462 1461 1460 1458 1455 1452 1449 1445 1439 1434 1428 1421 1414
1407 1414 1416 1417 1415 1409 1410 1410 1410 1409 1414 1416 1421 1426 1429 1433 1437 1441 1444 1446 1448 1449 1450 1452 1455 1457 1459 1460 1461 1460 1460 1460 1458 1457 1455 1452 1449 1445 1440 1435 1429 1423 1416 1409
1401 1401 1400 1403 1407 1409 1409 1409 1410 1411 1415 1419 1423 1427 1430 1434 1438 1441 1443 1445 1447 1449 1450 1452 1454 1455 1457 1458 1458 1458 1458 1457 1456 1454 1452 1449 1445 1440 1435 1429 1423 1417 1411 1405
1404 1406 1405 1407 1408 1410 1410 1410 1411 1414 1416 1420 1424 1428 1432 1435 1438 1441 1443 1445 1446 1447 1449 1450 1452 1454 1455 1455 1456 1456 1455 1454 1453 1451 1448 1444 1440 1435 1430 1424 1418 1412 1407 1400
1397 1404 1404 1406 1409 1410 1412 1412 1413 1416 1419 1423 1427 1430 1433 1436 1438 1440 1442 1443 1444 1445 1447 1448 1450 1451 1452 1453 1453 1453 1452 1451 1449 1446 1443 1439 1434 1429 1424 1418 1413 1407 1402 1397
1396 1396 1397 1396 1401 1404 1409 1411 1414 1417 1420 1424 1427 1430 1433 1435 1437 1438 1440 1441 1442 1443 1445 1446 1448 1449 1450 1450 1450 1450 1449 1447 1444 1441 1437 1433 1428 1423 1418 1412 1407 1401 1397 1392